Time,TemperatureF,DewpointF,PressureIn,WindDirection,WindDirectionDegrees,WindSpeedMPH,WindSpeedGustMPH,Humidity,HourlyPrecipIn,Conditions,Clouds,dailyrainin,SoftwareType,DateUTC
2014-01-01 00:03:00,38.8,25.0,30.06,West,278,9.0,13.0,59,0.00,,,0.00,weatherlink.com 1.10,2014-01-01 07:03:00,
2014-01-01 00:18:00,38.3,25.0,30.06,West,281,8.0,13.0,59,0.00,,,0.00,weatherlink.com 1.10,2014-01-01 07:18:00,
2014-01-01 00:33:00,37.9,25.0,30.07,West,269,7.0,12.0,59,0.00,,,0.00,weatherlink.com 1.10,2014-01-01 07:33:00,
2014-01-01 00:48:00,37.5,24.0,30.07,WNW,284,4.0,14.0,59,0.00,,,0.00,weatherlink.com 1.10,2014-01-01 07:48:00,
2014-01-01 01:03:00,37.0,24.0,30.08,WSW,256,0.0,7.0,59,0.00,,,0.00,weatherlink.com 1.10,2014-01-01 08:03:00,
2014-01-01 01:18:00,36.4,24.0,30.09,South,188,1.0,2.0,61,0.00,,,0.00,weatherlink.com 1.10,2014-01-01 08:18:00,
2014-01-01 01:33:00,36.3,24.0,30.10,East,88,3.0,5.0,61,0.00,,,0.00,weatherlink.com 1.10,2014-01-01 08:33:00,
2014-01-01 01:48:00,37.3,24.0,30.11,South,171,0.0,2.0,59,0.00,,,0.00,weatherlink.com 1.10,2014-01-01 08:48:00,
2014-01-01 02:03:00,36.4,24.0,30.12,SSE,167,0.0,2.0,60,0.00,,,0.00,weatherlink.com 1.10,2014-01-01 09:03:00,
2014-01-01 02:18:00,37.1,23.0,30.13,SSE,161,0.0,2.0,58,0.00,,,0.00,weatherlink.com 1.10,2014-01-01 09:18:00,
2014-01-01 02:34:00,37.1,23.0,30.13,SSW,209,0.0,4.0,58,0.00,,,0.00,weatherlink.com 1.10,2014-01-01 09:34:00,
2014-01-01 02:49:00,36.2,23.0,30.14,SSW,211,0.0,2.0,58,0.00,,,0.00,weatherlink.com 1.10,2014-01-01 09:49:00,
2014-01-01 03:04:00,35.6,23.0,30.16,WNW,285,0.0,0.0,60,0.00,,,0.00,weatherlink.com 1.10,2014-01-01 10:04:00,
2014-01-01 03:19:00,35.2,23.0,30.16,NNW,337,0.0,3.0,61,0.00,,,0.00,weatherlink.com 1.10,2014-01-01 10:19:00,
2014-01-01 03:34:00,35.0,23.0,30.17,NW,326,0.0,4.0,61,0.00,,,0.00,weatherlink.com 1.10,2014-01-01 10:34:00,
2014-01-01 03:49:00,34.8,23.0,30.18,NW,326,0.0,0.0,62,0.00,,,0.00,weatherlink.com 1.10,2014-01-01 10:49:00,
2014-01-01 04:04:00,33.5,23.0,30.18,NW,325,0.0,0.0,65,0.00,,,0.00,weatherlink.com 1.10,2014-01-01 11:04:00,
2014-01-01 04:19:00,33.5,23.0,30.20,North,355,3.0,5.0,66,0.00,,,0.00,weatherlink.com 1.10,2014-01-01 11:19:00,
2014-01-01 04:34:00,31.8,24.0,30.21,NW,320,2.0,7.0,73,0.00,,,0.00,weatherlink.com 1.10,2014-01-01 11:34:00,
2014-01-01 04:49:00,30.3,23.0,30.21,North,5,2.0,6.0,75,0.00,,,0.00,weatherlink.com 1.10,2014-01-01 11:49:00,
2014-01-01 05:04:00,30.2,23.0,30.22,WNW,292,1.0,7.0,73,0.00,,,0.00,weatherlink.com 1.10,2014-01-01 12:04:00,
2014-01-01 05:19:00,29.3,23.0,30.22,WNW,290,2.0,5.0,76,0.00,,,0.00,weatherlink.com 1.10,2014-01-01 12:19:00,
2014-01-01 05:34:00,28.9,23.0,30.23,NNW,341,3.0,7.0,77,0.00,,,0.00,weatherlink.com 1.10,2014-01-01 12:34:00,
2014-01-01 05:49:00,27.9,22.0,30.25,WNW,301,2.0,6.0,78,0.00,,,0.00,weatherlink.com 1.10,2014-01-01 12:49:00,
2014-01-01 06:04:00,27.5,22.0,30.25,NW,320,5.0,6.0,80,0.00,,,0.00,weatherlink.com 1.10,2014-01-01 13:04:00,
2014-01-01 06:19:00,26.9,22.0,30.26,NW,322,3.0,4.0,82,0.00,,,0.00,weatherlink.com 1.10,2014-01-01 13:19:00,
2014-01-01 06:34:00,26.8,22.0,30.27,NNW,331,2.0,6.0,82,0.00,,,0.00,weatherlink.com 1.10,2014-01-01 13:34:00,
2014-01-01 06:49:00,26.6,22.0,30.28,NNW,342,0.0,3.0,82,0.00,,,0.00,weatherlink.com 1.10,2014-01-01 13:49:00,
2014-01-01 07:04:00,26.2,22.0,30.28,NNW,342,0.0,0.0,83,0.00,,,0.00,weatherlink.com 1.10,2014-01-01 14:04:00,
2014-01-01 07:19:00,26.5,22.0,30.29,NNW,343,0.0,0.0,83,0.00,,,0.00,weatherlink.com 1.10,2014-01-01 14:19:00,
2014-01-01 07:34:00,26.2,22.0,30.29,NNW,342,0.0,0.0,84,0.00,,,0.00,weatherlink.com 1.10,2014-01-01 14:34:00,
2014-01-01 07:49:00,25.9,22.0,30.30,NNW,342,0.0,0.0,84,0.00,,,0.00,weatherlink.com 1.10,2014-01-01 14:49:00,
2014-01-01 08:04:00,25.6,22.0,30.30,NNW,341,0.0,0.0,85,0.00,,,0.00,weatherlink.com 1.10,2014-01-01 15:04:00,
2014-01-01 08:19:00,25.2,21.0,30.31,NNW,341,0.0,0.0,85,0.00,,,0.00,weatherlink.com 1.10,2014-01-01 15:19:00,
2014-01-01 08:35:00,24.8,22.0,30.32,NNW,341,0.0,0.0,87,0.00,,,0.00,weatherlink.com 1.10,2014-01-01 15:35:00,
2014-01-01 08:50:00,24.8,22.0,30.33,NNW,341,0.0,0.0,87,0.00,,,0.00,weatherlink.com 1.10,2014-01-01 15:50:00,
2014-01-01 09:05:00,24.6,21.0,30.33,NNW,341,0.0,0.0,87,0.00,,,0.00,weatherlink.com 1.10,2014-01-01 16:05:00,
2014-01-01 09:20:00,24.7,21.0,30.34,NNW,341,0.0,0.0,87,0.00,,,0.00,weatherlink.com 1.10,2014-01-01 16:20:00,
2014-01-01 09:35:00,24.9,22.0,30.34,NNW,341,0.0,0.0,87,0.00,,,0.00,weatherlink.com 1.10,2014-01-01 16:35:00,
2014-01-01 09:50:00,26.2,23.0,30.35,NNW,341,0.0,0.0,87,0.00,,,0.00,weatherlink.com 1.10,2014-01-01 16:50:00,
2014-01-01 10:05:00,27.7,24.0,30.35,NNW,334,0.0,0.0,85,0.00,,,0.00,weatherlink.com 1.10,2014-01-01 17:05:00,
2014-01-01 10:20:00,29.7,25.0,30.35,ESE,123,0.0,0.0,82,0.00,,,0.00,weatherlink.com 1.10,2014-01-01 17:20:00,
2014-01-01 10:35:00,31.6,26.0,30.34,SE,141,0.0,0.0,79,0.00,,,0.00,weatherlink.com 1.10,2014-01-01 17:35:00,
2014-01-01 10:50:00,33.2,26.0,30.35,SE,141,0.0,0.0,75,0.00,,,0.00,weatherlink.com 1.10,2014-01-01 17:50:00,
2014-01-01 11:05:00,34.4,26.0,30.34,SSE,158,0.0,2.0,72,0.00,,,0.00,weatherlink.com 1.10,2014-01-01 18:05:00,
2014-01-01 11:20:00,36.2,27.0,30.33,SSE,156,0.0,3.0,68,0.00,,,0.00,weatherlink.com 1.10,2014-01-01 18:20:00,
2014-01-01 11:35:00,39.3,25.0,30.33,SSE,159,2.0,7.0,56,0.00,,,0.00,weatherlink.com 1.10,2014-01-01 18:35:00,
2014-01-01 11:50:00,41.0,24.0,30.32,SE,140,1.0,8.0,51,0.00,,,0.00,weatherlink.com 1.10,2014-01-01 18:50:00,
2014-01-01 12:05:00,41.8,23.0,30.31,WSW,239,0.0,8.0,48,0.00,,,0.00,weatherlink.com 1.10,2014-01-01 19:05:00,
2014-01-01 12:20:00,42.0,22.0,30.30,WSW,258,4.0,9.0,45,0.00,,,0.00,weatherlink.com 1.10,2014-01-01 19:20:00,
2014-01-01 12:35:00,42.2,21.0,30.30,WSW,258,4.0,11.0,43,0.00,,,0.00,weatherlink.com 1.10,2014-01-01 19:35:00,
2014-01-01 12:50:00,42.3,22.0,30.30,WSW,246,6.0,10.0,44,0.00,,,0.00,weatherlink.com 1.10,2014-01-01 19:50:00,
2014-01-01 13:05:00,42.4,22.0,30.29,WSW,248,0.0,10.0,44,0.00,,,0.00,weatherlink.com 1.10,2014-01-01 20:05:00,
2014-01-01 13:20:00,42.8,21.0,30.29,WSW,250,3.0,7.0,42,0.00,,,0.00,weatherlink.com 1.10,2014-01-01 20:20:00,
2014-01-01 13:35:00,42.6,21.0,30.28,WSW,256,3.0,10.0,42,0.00,,,0.00,weatherlink.com 1.10,2014-01-01 20:35:00,
2014-01-01 13:50:00,42.3,21.0,30.28,West,261,2.0,11.0,42,0.00,,,0.00,weatherlink.com 1.10,2014-01-01 20:50:00,
2014-01-01 14:05:00,42.2,20.0,30.28,WSW,258,5.0,10.0,42,0.00,,,0.00,weatherlink.com 1.10,2014-01-01 21:05:00,
2014-01-01 14:20:00,42.3,21.0,30.28,SW,232,6.0,11.0,42,0.00,,,0.00,weatherlink.com 1.10,2014-01-01 21:20:00,
2014-01-01 14:35:00,42.1,20.0,30.29,WSW,243,3.0,11.0,42,0.00,,,0.00,weatherlink.com 1.10,2014-01-01 21:35:00,
2014-01-01 14:50:00,41.4,21.0,30.29,WSW,254,4.0,13.0,44,0.00,,,0.00,weatherlink.com 1.10,2014-01-01 21:50:00,
2014-01-01 15:05:00,41.0,21.0,30.29,West,266,10.0,12.0,45,0.00,,,0.00,weatherlink.com 1.10,2014-01-01 22:05:00,
2014-01-01 15:20:00,40.3,21.0,30.29,WSW,243,0.0,7.0,46,0.00,,,0.00,weatherlink.com 1.10,2014-01-01 22:20:00,
2014-01-01 15:35:00,40.1,21.0,30.29,WSW,242,2.0,8.0,47,0.00,,,0.00,weatherlink.com 1.10,2014-01-01 22:35:00,
2014-01-01 15:50:00,39.9,20.0,30.29,WSW,249,0.0,8.0,46,0.00,,,0.00,weatherlink.com 1.10,2014-01-01 22:50:00,
2014-01-01 16:05:00,40.2,21.0,30.29,SW,236,2.0,6.0,46,0.00,,,0.00,weatherlink.com 1.10,2014-01-01 23:05:00,
2014-01-01 16:20:00,38.6,20.0,30.29,SW,234,0.0,4.0,48,0.00,,,0.00,weatherlink.com 1.10,2014-01-01 23:20:00,
2014-01-01 16:35:00,37.5,21.0,30.29,South,170,4.0,5.0,51,0.00,,,0.00,weatherlink.com 1.10,2014-01-01 23:35:00,
2014-01-01 16:50:00,36.9,21.0,30.29,SW,223,4.0,6.0,52,0.00,,,0.00,weatherlink.com 1.10,2014-01-01 23:50:00,
2014-01-01 17:05:00,36.5,20.0,30.29,South,172,0.0,1.0,52,0.00,,,0.00,weatherlink.com 1.10,2014-01-02 00:05:00,
2014-01-01 17:20:00,35.8,21.0,30.30,South,175,0.0,4.0,55,0.00,,,0.00,weatherlink.com 1.10,2014-01-02 00:20:00,
2014-01-01 17:35:00,36.3,21.0,30.30,South,171,2.0,3.0,54,0.00,,,0.00,weatherlink.com 1.10,2014-01-02 00:35:00,
2014-01-01 17:50:00,35.8,21.0,30.29,SSE,151,0.0,3.0,55,0.00,,,0.00,weatherlink.com 1.10,2014-01-02 00:50:00,
2014-01-01 18:05:00,36.2,21.0,30.29,SSE,168,1.0,5.0,55,0.00,,,0.00,weatherlink.com 1.10,2014-01-02 01:05:00,
2014-01-01 18:20:00,35.3,21.0,30.29,South,187,0.0,5.0,57,0.00,,,0.00,weatherlink.com 1.10,2014-01-02 01:20:00,
2014-01-01 18:35:00,35.4,21.0,30.29,South,179,0.0,4.0,57,0.00,,,0.00,weatherlink.com 1.10,2014-01-02 01:35:00,
2014-01-01 18:50:00,35.8,21.0,30.29,South,190,0.0,4.0,56,0.00,,,0.00,weatherlink.com 1.10,2014-01-02 01:50:00,
2014-01-01 19:05:00,35.7,21.0,30.29,South,169,2.0,8.0,56,0.00,,,0.00,weatherlink.com 1.10,2014-01-02 02:05:00,
2014-01-01 19:20:00,36.0,22.0,30.28,South,170,1.0,14.0,56,0.00,,,0.00,weatherlink.com 1.10,2014-01-02 02:20:00,
2014-01-01 19:35:00,36.1,21.0,30.27,SE,134,5.0,10.0,55,0.00,,,0.00,weatherlink.com 1.10,2014-01-02 02:35:00,
2014-01-01 19:50:00,36.2,21.0,30.28,SSE,150,8.0,10.0,55,0.00,,,0.00,weatherlink.com 1.10,2014-01-02 02:50:00,
2014-01-01 20:05:00,36.3,21.0,30.28,WSW,242,3.0,7.0,54,0.00,,,0.00,weatherlink.com 1.10,2014-01-02 03:05:00,
2014-01-01 20:20:00,37.1,21.0,30.29,South,169,4.0,7.0,53,0.00,,,0.00,weatherlink.com 1.10,2014-01-02 03:20:00,
2014-01-01 20:35:00,36.6,21.0,30.28,South,173,1.0,10.0,54,0.00,,,0.00,weatherlink.com 1.10,2014-01-02 03:35:00,
2014-01-01 20:50:00,36.6,21.0,30.28,SSE,152,3.0,11.0,54,0.00,,,0.00,weatherlink.com 1.10,2014-01-02 03:50:00,
2014-01-01 21:20:00,36.4,21.0,30.27,SSE,159,9.0,13.0,55,0.00,,,0.00,weatherlink.com 1.10,2014-01-02 04:20:00,
2014-01-01 21:35:00,36.4,21.0,30.27,SSE,153,6.0,10.0,55,0.00,,,0.00,weatherlink.com 1.10,2014-01-02 04:35:00,
2014-01-01 21:50:00,36.5,22.0,30.27,SSE,163,7.0,10.0,55,0.00,,,0.00,weatherlink.com 1.10,2014-01-02 04:50:00,
2014-01-01 22:05:00,36.7,21.0,30.27,SSE,161,4.0,12.0,54,0.00,,,0.00,weatherlink.com 1.10,2014-01-02 05:05:00,
2014-01-01 22:20:00,36.3,21.0,30.27,SW,234,1.0,5.0,55,0.00,,,0.00,weatherlink.com 1.10,2014-01-02 05:20:00,
2014-01-01 22:35:00,37.3,21.0,30.26,South,171,2.0,10.0,52,0.00,,,0.00,weatherlink.com 1.10,2014-01-02 05:35:00,
2014-01-01 22:50:00,37.3,21.0,30.26,South,175,1.0,10.0,52,0.00,,,0.00,weatherlink.com 1.10,2014-01-02 05:50:00,
2014-01-01 23:05:00,37.9,21.0,30.27,South,179,3.0,14.0,51,0.00,,,0.00,weatherlink.com 1.10,2014-01-02 06:05:00,
2014-01-01 23:20:00,38.3,21.0,30.27,SE,146,4.0,16.0,50,0.00,,,0.00,weatherlink.com 1.10,2014-01-02 06:20:00,
2014-01-01 23:35:00,38.1,20.0,30.26,South,169,3.0,15.0,49,0.00,,,0.00,weatherlink.com 1.10,2014-01-02 06:35:00,
2014-01-01 23:50:00,38.0,20.0,30.25,SE,146,8.0,18.0,49,0.00,,,0.00,weatherlink.com 1.10,2014-01-02 06:50:00,